TimeCST,TemperatureF,Dew PointF,Humidity,Sea Level PressureIn,VisibilityMPH,Wind Direction,Wind SpeedMPH,Gust SpeedMPH,PrecipitationIn,Events,Conditions,WindDirDegrees,DateUTC
12:15 AM,33.8,26.6,75,30.26,10.0,ESE,8.1,-,N/A,,Clear,110,2013-02-01 06:15:00
12:35 AM,32.0,24.8,75,30.27,10.0,ESE,4.6,-,N/A,,Clear,120,2013-02-01 06:35:00
12:55 AM,32.0,23.0,69,30.27,10.0,ESE,6.9,-,N/A,,Clear,110,2013-02-01 06:55:00
1:15 AM,32.0,23.0,69,30.27,10.0,ESE,5.8,-,N/A,,Clear,120,2013-02-01 07:15:00
1:35 AM,30.2,23.0,75,30.26,10.0,ESE,4.6,-,N/A,,Clear,120,2013-02-01 07:35:00
2:15 AM,30.2,23.0,75,30.26,10.0,ESE,5.8,-,N/A,,Clear,110,2013-02-01 08:15:00
2:35 AM,30.2,23.0,75,30.25,10.0,SE,6.9,-,N/A,,Clear,130,2013-02-01 08:35:00
2:55 AM,30.2,23.0,75,30.25,10.0,ESE,8.1,-,N/A,,Clear,120,2013-02-01 08:55:00
3:15 AM,30.2,24.8,80,30.24,10.0,SE,9.2,-,N/A,,Clear,130,2013-02-01 09:15:00
3:35 AM,28.4,23.0,80,30.24,10.0,SE,9.2,-,N/A,,Clear,130,2013-02-01 09:35:00
3:55 AM,28.4,21.2,74,30.25,10.0,ESE,4.6,-,N/A,,Clear,110,2013-02-01 09:55:00
4:15 AM,26.6,21.2,80,30.26,10.0,ESE,5.8,-,N/A,,Clear,120,2013-02-01 10:15:00
4:35 AM,26.6,21.2,80,30.26,10.0,SE,5.8,-,N/A,,Clear,130,2013-02-01 10:35:00
5:15 AM,23.0,21.2,93,30.25,10.0,ESE,4.6,-,N/A,,Clear,120,2013-02-01 11:15:00
5:35 AM,23.0,19.4,86,30.25,10.0,ESE,3.5,-,N/A,,Clear,120,2013-02-01 11:35:00
6:15 AM,21.2,19.4,93,30.24,10.0,Calm,Calm,-,N/A,,Clear,0,2013-02-01 12:15:00
6:35 AM,21.2,19.4,93,30.23,10.0,SSE,5.8,-,N/A,,Clear,150,2013-02-01 12:35:00
6:55 AM,21.2,19.4,93,30.24,7.0,East,3.5,-,N/A,,Clear,90,2013-02-01 12:55:00
7:15 AM,21.2,19.4,93,30.23,10.0,Calm,Calm,-,N/A,,Scattered Clouds,0,2013-02-01 13:15:00
7:35 AM,21.2,19.4,93,30.24,7.0,Calm,Calm,-,N/A,,Mostly Cloudy,0,2013-02-01 13:35:00
7:55 AM,23.0,21.2,93,30.24,5.0,South,3.5,-,N/A,,Overcast,180,2013-02-01 13:55:00
8:15 AM,23.0,21.2,93,30.23,5.0,South,5.8,-,N/A,,Overcast,170,2013-02-01 14:15:00
8:35 AM,23.0,21.2,93,30.23,2.5,South,5.8,-,N/A,,Overcast,170,2013-02-01 14:35:00
8:55 AM,23.0,21.2,93,30.23,7.0,South,3.5,-,N/A,,Mostly Cloudy,180,2013-02-01 14:55:00
9:15 AM,28.4,26.6,93,30.23,10.0,South,8.1,-,N/A,,Scattered Clouds,190,2013-02-01 15:15:00
9:35 AM,30.2,26.6,86,30.23,10.0,South,10.4,-,N/A,,Scattered Clouds,190,2013-02-01 15:35:00
9:55 AM,30.2,26.6,86,30.22,10.0,South,13.8,-,N/A,,Clear,190,2013-02-01 15:55:00
10:15 AM,32.0,26.6,80,30.22,10.0,South,12.7,-,N/A,,Clear,190,2013-02-01 16:15:00
10:35 AM,33.8,26.6,75,30.21,10.0,SSW,11.5,-,N/A,,Clear,200,2013-02-01 16:35:00
10:55 AM,35.6,28.4,75,30.20,10.0,South,12.7,18.4,N/A,,Clear,190,2013-02-01 16:55:00
11:15 AM,39.2,28.4,65,30.20,10.0,SSW,13.8,-,N/A,,Clear,200,2013-02-01 17:15:00
11:35 AM,42.8,26.6,53,30.20,10.0,SSW,12.7,17.3,N/A,,Clear,200,2013-02-01 17:35:00
12:15 PM,50.0,28.4,43,30.18,10.0,SSW,13.8,18.4,N/A,,Clear,210,2013-02-01 18:15:00
12:35 PM,50.0,26.6,40,30.17,10.0,SW,16.1,20.7,N/A,,Clear,220,2013-02-01 18:35:00
12:55 PM,51.8,26.6,38,30.15,10.0,SW,17.3,23.0,N/A,,Clear,220,2013-02-01 18:55:00
1:15 PM,53.6,26.6,35,30.13,10.0,SSW,17.3,25.3,N/A,,Clear,210,2013-02-01 19:15:00
1:35 PM,55.4,24.8,31,30.12,10.0,SW,15.0,21.9,N/A,,Clear,220,2013-02-01 19:35:00
1:55 PM,55.4,24.8,31,30.11,10.0,SW,19.6,25.3,N/A,,Clear,220,2013-02-01 19:55:00
2:15 PM,57.2,21.2,25,30.09,10.0,SSW,21.9,27.6,N/A,,Clear,210,2013-02-01 20:15:00
2:35 PM,59.0,21.2,23,30.06,10.0,SW,21.9,29.9,N/A,,Clear,220,2013-02-01 20:35:00
2:55 PM,59.0,21.2,23,30.05,10.0,SW,23.0,32.2,N/A,,Clear,220,2013-02-01 20:55:00
3:15 PM,59.0,21.2,23,30.04,10.0,SSW,25.3,-,N/A,,Clear,210,2013-02-01 21:15:00
3:35 PM,59.0,19.4,22,30.04,10.0,SW,26.5,34.5,N/A,,Clear,230,2013-02-01 21:35:00
4:15 PM,60.8,19.4,20,30.03,10.0,SW,20.7,26.5,N/A,,Clear,220,2013-02-01 22:15:00
4:35 PM,60.8,19.4,20,30.03,10.0,SW,16.1,26.5,N/A,,Clear,230,2013-02-01 22:35:00
4:55 PM,60.8,17.6,19,30.03,10.0,SW,13.8,24.2,N/A,,Clear,220,2013-02-01 22:55:00
5:15 PM,60.8,17.6,19,30.03,10.0,SW,12.7,20.7,N/A,,Clear,230,2013-02-01 23:15:00
5:35 PM,60.8,14.0,16,30.02,10.0,SW,12.7,20.7,N/A,,Clear,230,2013-02-01 23:35:00
6:15 PM,55.4,15.8,21,30.03,10.0,SW,8.1,-,N/A,,Clear,220,2013-02-02 00:15:00
6:35 PM,53.6,17.6,24,30.03,10.0,SW,10.4,-,N/A,,Clear,220,2013-02-02 00:35:00
6:55 PM,51.8,17.6,26,30.04,10.0,SW,8.1,-,N/A,,Clear,220,2013-02-02 00:55:00
7:15 PM,51.8,17.6,26,30.04,10.0,SSW,8.1,-,N/A,,Clear,210,2013-02-02 01:15:00
7:35 PM,50.0,15.8,26,30.04,10.0,SSW,10.4,-,N/A,,Clear,210,2013-02-02 01:35:00
7:55 PM,50.0,17.6,28,30.04,10.0,SSW,9.2,-,N/A,,Clear,210,2013-02-02 01:55:00
8:15 PM,50.0,17.6,28,30.04,10.0,SW,8.1,-,N/A,,Clear,220,2013-02-02 02:15:00
8:35 PM,44.6,15.8,31,30.04,10.0,SW,8.1,-,N/A,,Clear,220,2013-02-02 02:35:00
8:55 PM,42.8,14.0,31,30.05,10.0,SW,9.2,-,N/A,,Clear,220,2013-02-02 02:55:00
9:15 PM,42.8,14.0,31,30.05,10.0,SW,8.1,-,N/A,,Clear,220,2013-02-02 03:15:00
9:35 PM,41.0,14.0,33,30.05,10.0,SW,8.1,-,N/A,,Clear,220,2013-02-02 03:35:00
9:55 PM,41.0,14.0,33,30.06,10.0,SW,8.1,-,N/A,,Clear,220,2013-02-02 03:55:00
10:15 PM,37.4,14.0,38,30.06,10.0,SW,8.1,-,N/A,,Clear,230,2013-02-02 04:15:00
10:35 PM,39.2,14.0,36,30.06,10.0,WSW,11.5,-,N/A,,Clear,240,2013-02-02 04:35:00
10:55 PM,39.2,12.2,33,30.06,10.0,WSW,11.5,-,N/A,,Clear,240,2013-02-02 04:55:00
11:15 PM,39.2,12.2,33,30.06,10.0,WSW,11.5,-,N/A,,Clear,250,2013-02-02 05:15:00
11:35 PM,39.2,12.2,33,30.07,10.0,WSW,10.4,-,N/A,,Clear,250,2013-02-02 05:35:00
11:55 PM,37.4,12.2,36,30.07,10.0,West,6.9,-,N/A,,Clear,260,2013-02-02 05:55:00